Weather History for KESF - August, 2014

Change the Weather History Date:

Thursday, August 14, 2014

  Actual Average Record
Temperature  
Mean Temperature 76 °F -  
Max Temperature 89 °F 91 °F 100 °F (1999)
Min Temperature 63 °F 69 °F 51 °F (2004)
Cooling Degree Days 11    
Growing Degree Days 26 (Base 50)    
Moisture  
Dew Point 64 °F    
Average Humidity 72    
Maximum Humidity 93    
Minimum Humidity 42    
Precipitation  
Precipitation 0.00 in - - ()
Sea Level Pressure  
Sea Level Pressure 30.03 in    
Wind  
Wind Speed 1 mph (ENE)    
Max Wind Speed 10 mph    
Max Gust Speed -    
Visibility 8 miles    
Events      
Averages and records for this station are not official NWS values.
T = Trace of Precipitation, MM = Missing Value Source: NWS Daily Summary

Daily Weather History Graph

Daily Weather History Graph

Search for Another Location

Airport or City:

Trip Planner

Search our weather history database for the weather conditions in past years. The results will help you decide how hot, cold, wet, or windy it might be!

Date:

Astronomy

Aug. 14, 2014 Rise Set
Actual Time 6:34 AM CDT 7:53 PM CDT
Civil Twilight 6:08 AM CDT 8:18 PM CDT
Nautical Twilight 5:37 AM CDT 8:49 PM CDT
Astronomical Twilight 5:06 AM CDT 9:20 PM CDT
Moon 10:38 PM CDT (8/14) 10:50 AM CDT (8/14)
Length of Visible Light 14h 10m
Length of Day
13h 19m
Waning Gibbous, 79% of the Moon is Illuminated
Aug 14
Waning Gibbous
Aug 17
Last Quarter
Aug 25
New
Sep 2
First Quarter
Sep 8
Full

Hourly Weather History & Observations

Time (CDT) Temp. Heat Index Dew Point Humidity Pressure Visibility Wind Dir Wind Speed Gust Speed Precip Events Conditions
12:53 AM 66.9 °F - 64.0 °F 90% 30.04 in 6.0 mi Calm Calm - N/A   Clear
1:48 AM 66.2 °F - 62.6 °F 88% 30.03 in 1.8 mi Calm Calm - N/A   Clear
1:53 AM 66.0 °F - 63.0 °F 90% 30.03 in 1.2 mi Calm Calm - N/A   Partly Cloudy
2:00 AM 66.0 °F - 63.0 °F 90% 30.04 in 3.0 mi Calm Calm - N/A   Clear
2:53 AM 64.9 °F - 62.1 °F 90% 30.02 in 1.8 mi Calm Calm - N/A   Clear
3:36 AM 64.9 °F - 62.1 °F 90% 30.03 in 3.0 mi Calm Calm - N/A   Clear
3:53 AM 64.0 °F - 62.1 °F 93% 30.03 in 6.0 mi Calm Calm - N/A   Clear
4:53 AM 64.0 °F - 61.0 °F 90% 30.04 in 10.0 mi Calm Calm - N/A   Clear
5:53 AM 63.0 °F - 60.1 °F 90% 30.04 in 3.0 mi Calm Calm - N/A   Clear
6:53 AM 63.0 °F - 60.1 °F 90% 30.06 in 9.0 mi Calm Calm - N/A   Clear
7:53 AM 68.0 °F - 64.0 °F 87% 30.07 in 10.0 mi Calm Calm - N/A   Clear
8:53 AM 75.9 °F - 66.0 °F 71% 30.07 in 10.0 mi Calm Calm - N/A   Clear
9:53 AM 81.0 °F 82.2 °F 63.0 °F 54% 30.07 in 10.0 mi Variable 3.5 mph - N/A   Clear
10:53 AM 84.9 °F 85.9 °F 63.0 °F 48% 30.08 in 10.0 mi East 4.6 mph - N/A   Clear
11:53 AM 84.9 °F 85.0 °F 61.0 °F 44% 30.07 in 10.0 mi Variable 3.5 mph - N/A   Clear
12:53 PM 86.0 °F 86.3 °F 62.1 °F 44% 30.05 in 10.0 mi NNE 8.1 mph - N/A   Clear
1:53 PM 87.1 °F 87.8 °F 63.0 °F 44% 30.04 in 10.0 mi NE 10.4 mph - N/A   Clear
2:53 PM 88.0 °F 89.3 °F 64.0 °F 45% 30.03 in 10.0 mi Variable 5.8 mph - N/A   Partly Cloudy
3:53 PM 89.1 °F 90.0 °F 63.0 °F 42% 30.01 in 10.0 mi Variable 3.5 mph - N/A   Clear
4:53 PM 89.1 °F 90.3 °F 64.0 °F 43% 30.00 in 10.0 mi East 4.6 mph - N/A   Clear
5:53 PM 88.0 °F 88.7 °F 63.0 °F 43% 29.99 in 10.0 mi ESE 4.6 mph - N/A   Clear
6:53 PM 84.9 °F 88.8 °F 69.1 °F 59% 29.99 in 10.0 mi Calm Calm - N/A   Clear
7:53 PM 77.0 °F - 69.1 °F 76% 29.99 in 10.0 mi Calm Calm - N/A   Clear
8:53 PM 72.0 °F - 68.0 °F 87% 30.00 in 10.0 mi Calm Calm - N/A   Clear
9:53 PM 70.0 °F - 66.9 °F 90% 30.01 in 10.0 mi Calm Calm - N/A   Clear
10:53 PM 69.1 °F - 64.9 °F 87% 30.01 in 10.0 mi Calm Calm - N/A   Clear
11:53 PM 68.0 °F - 64.0 °F 87% 30.01 in 10.0 mi Calm Calm - N/A   Clear